Location: Bothwell
(42.3833°S, 147.0000°E)
Time: 20:19:37
(UTC+11:00)

CUBESAT XI-V - Pass Details

Date: 30 September 2022
Orbit: 666 x 689 km, 98.1° (Epoch: 25 November)

Event Time Altitude Azimuth Distance (km) Brightness Sun altitude
Rises 02:56:30 0° 169° (SSE) 3,088 ? -30.3°
Reaches altitude 10° 02:58:46 10° 169° (S) 2,168 ? -29.9°
Enters shadow 03:01:56 42° 175° (S) 990 ? -29.5°
